RH
38 27 21 22 24 24 23 23 21 19 20 20 19 20 20 20 19 18 20 21 20 21 21 23 27 29 35 41 39 39 39 36 39 36 24 28 40 42 35 21 12 14 15 12 13 12 13 17 18 20 24 29 35 44 49 52 58 65 69 71 69 62 58 59 59 58 61 63 64 63 63 65 69 71 72 72 70 66 64 66 71 78 85 87 84 81 81
40 34 22 19 22 22 22 22 20 19 20 20 19 20 19 20 20 20 22 22 21 20 19 21 28 34 41 46 42 38 39 36 35 35 29 28 36 36 23 12 12 16 15 14 14 15 16 18 19 22 27 31 36 43 48 50 56 65 70 70 67 62 58 58 58 57 59 61 63 65 66 69 70 70 72 74 76 74 71 72 78 81 83 85 83 80 77
38 36 27 19 19 21 21 20 20 20 20 19 20 20 20 20 21 21 22 21 21 20 18 21 29 36 39 39 35 34 40 42 33 26 24 25 31 32 20 12 17 19 17 16 15 16 19 20 22 26 28 31 36 42 46 50 56 64 68 68 65 61 57 56 57 57 56 59 63 66 68 70 70 71 75 78 79 80 82 85 88 88 89 89 84 78 74
41 38 33 27 24 21 20 19 19 20 20 21 21 21 22 22 21 22 23 22 22 20 19 22 25 28 28 29 29 28 35 42 32 18 18 21 26 28 21 17 23 23 18 16 15 18 21 22 26 28 30 32 35 39 44 47 54 63 67 66 64 61 56 55 57 57 56 58 63 65 67 70 72 76 84 86 80 81 89 91 87 86 88 89 83 80 80
43 41 38 37 34 28 23 20 19 19 20 22 22 21 23 24 23 25 25 23 24 22 22 25 24 23 23 23 23 22 30 45 43 26 19 19 24 29 27 25 27 24 19 17 18 19 21 24 27 30 31 33 34 37 42 45 53 64 67 65 63 58 55 55 58 59 58 58 61 63 65 70 75 79 86 91 86 83 87 89 86 86 87 87 85 82 79
45 48 45 44 44 37 29 23 21 22 21 21 23 23 22 23 25 27 25 24 25 24 24 25 24 23 21 18 21 26 34 46 47 34 20 16 21 29 30 27 26 24 23 22 20 20 22 25 29 31 33 34 34 36 41 48 59 68 67 63 59 55 54 56 59 60 60 59 60 62 64 69 75 79 84 90 89 86 88 91 91 90 86 85 85 81 75
45 50 48 47 46 38 32 28 25 25 24 22 22 23 22 23 26 26 25 26 26 25 24 24 23 22 18 18 30 37 33 30 27 22 16 14 20 28 29 27 27 25 24 22 20 22 25 27 29 29 29 31 34 38 44 52 62 67 65 60 55 53 55 58 60 61 60 59 59 60 63 68 74 78 82 87 89 88 91 92 89 85 83 82 83 81 78
53 50 42 39 42 39 39 39 32 25 24 24 23 24 24 26 27 26 26 27 27 26 24 24 23 20 19 27 40 41 32 21 14 11 12 14 21 27 27 26 27 25 24 23 23 25 26 25 24 24 25 28 34 40 45 52 61 64 64 60 55 54 56 58 61 62 62 62 60 60 64 69 73 76 82 88 91 91 93 92 88 86 86 85 84 82 81
60 52 40 35 38 39 40 43 38 31 28 26 23 24 26 26 27 28 26 27 28 27 26 24 20 21 30 38 35 29 25 19 11 9 11 14 21 26 26 26 27 26 25 26 26 25 24 22 22 23 26 29 35 42 47 54 62 65 65 62 58 57 57 58 62 65 65 66 65 64 66 69 72 77 84 91 92 91 94 96 93 90 88 84 81 80 82
55 52 47 38 34 37 43 51 50 40 32 30 28 26 25 26 27 26 26 27 27 26 26 24 19 25 39 39 24 19 23 20 14 12 11 14 23 26 25 26 28 28 28 26 24 23 23 23 25 27 29 33 39 45 50 56 62 65 66 65 63 61 59 61 64 67 69 71 70 69 70 72 75 81 89 95 95 95 98 96 90 85 81 78 77 77 81
52 52 50 39 36 44 57 65 54 33 24 30 33 29 24 25 26 25 25 26 25 24 24 21 22 32 38 32 26 28 31 27 23 19 15 18 26 28 27 29 28 27 27 25 22 23 23 25 29 32 35 39 43 47 53 57 60 63 65 66 65 64 63 64 66 67 71 73 74 78 81 83 86 91 94 96 98 100 98 91 85 81 76 76 77 78 81
53 52 48 48 53 56 64 70 54 29 23 28 32 31 27 26 26 25 26 25 23 24 24 20 26 36 34 32 38 41 36 29 26 23 20 22 28 30 30 31 30 27 26 23 22 23 23 27 34 39 41 43 45 48 51 53 55 58 59 60 62 62 61 61 61 63 66 71 79 87 90 92 95 97 98 99 100 100 95 89 87 84 78 77 81 84 83
52 52 50 58 62 56 63 72 51 28 27 30 32 37 38 34 29 23 24 27 23 22 25 24 28 36 35 32 37 37 29 25 26 27 25 26 31 34 31 30 30 28 26 26 25 25 27 31 37 42 43 43 44 44 46 47 48 50 52 53 54 54 54 56 58 59 63 69 77 82 85 91 98 100 99 100 100 100 97 91 89 88 84 82 84 88 86
55 53 51 60 63 55 63 68 45 28 36 40 41 47 46 43 42 29 20 26 28 24 28 31 32 36 34 25 23 24 21 21 26 31 30 30 34 35 32 32 33 30 28 29 29 29 31 32 35 38 40 40 41 39 38 38 39 42 45 46 44 45 50 53 52 51 52 55 62 71 82 94 100 100 100 100 98 99 97 92 90 91 89 84 83 86 86
56 52 50 57 64 60 61 62 48 42 52 55 55 58 47 41 51 46 27 24 29 28 30 34 36 37 30 17 14 17 16 18 28 35 36 38 38 36 34 34 34 33 33 34 33 33 35 35 36 39 39 36 33 30 28 28 30 34 36 33 30 34 41 42 39 37 38 41 53 74 94 102 101 99 98 96 93 95 96 95 94 89 82 78 81 86 86
54 52 53 56 58 56 61 69 62 54 60 62 61 62 50 36 45 55 40 22 18 19 20 22 24 26 23 15 14 16 13 18 30 34 37 42 41 37 36 35 32 32 35 37 37 36 34 33 36 38 35 29 23 20 20 22 24 27 27 23 22 25 29 32 31 29 30 34 43 63 84 94 92 90 90 88 90 94 95 95 91 80 74 80 88 89 84
54 51 54 57 56 55 63 73 69 59 60 62 56 55 51 39 36 42 35 19 12 14 15 14 14 16 17 15 15 15 16 24 34 32 32 41 42 36 36 35 29 26 29 31 31 30 27 26 28 29 27 22 19 18 20 21 22 22 21 21 22 23 26 31 32 28 28 31 34 43 58 70 77 81 82 80 82 86 87 86 79 67 66 78 87 88 83
58 52 51 55 57 59 62 65 65 60 59 58 52 48 51 48 42 38 32 25 20 17 15 16 15 15 18 19 19 20 23 33 38 32 31 42 46 40 37 37 31 26 26 29 30 27 25 23 21 22 21 19 20 20 20 22 24 23 23 24 26 27 29 31 31 28 26 29 33 38 47 62 80 90 86 79 80 82 82 80 73 66 70 82 89 89 85
59 51 49 52 55 58 59 57 58 58 54 53 51 47 45 46 46 43 38 34 32 27 23 23 23 23 27 31 32 32 34 39 40 35 34 42 46 43 39 38 36 32 29 32 34 30 26 22 20 21 21 20 22 22 21 23 26 25 25 26 27 28 28 27 27 27 27 29 34 39 46 63 85 93 84 79 84 84 79 76 72 69 76 86 89 86 83
57 52 52 54 54 54 55 56 57 55 52 51 49 46 45 44 42 42 40 38 38 36 34 33 34 36 40 44 45 43 42 42 43 45 50 58 62 61 51 40 38 40 38 38 38 32 26 23 21 22 23 22 23 23 24 26 27 27 27 28 27 27 26 25 26 26 27 30 34 39 45 59 80 90 85 81 85 85 83 85 84 81 83 86 86 86 85
55 53 52 51 51 51 51 54 56 53 54 56 51 44 45 44 40 39 39 37 38 38 37 37 37 39 43 47 49 49 47 47 47 48 54 57 57 60 55 43 39 44 44 42 40 33 27 25 23 23 24 25 25 27 27 28 28 28 29 28 27 28 27 27 28 28 29 30 33 37 41 50 69 86 88 84 86 89 90 91 89 90 92 91 90 91 87
52 52 56 57 62 67 61 56 55 53 56 65 63 54 48 45 42 40 37 35 35 35 35 36 35 35 38 41 45 47 50 52 52 50 50 47 43 48 52 46 42 47 47 44 41 36 30 26 25 25 26 26 27 29 30 31 31 31 30 30 30 31 31 32 32 32 32 32 34 38 41 46 56 71 80 84 87 91 94 91 86 91 96 94 91 91 84
56 65 69 60 60 69 67 63 64 61 57 59 64 63 57 48 44 43 40 37 35 32 32 34 33 33 35 36 38 41 42 45 47 46 45 43 44 50 53 44 37 40 40 37 37 38 35 32 29 28 29 29 30 33 34 34 34 33 32 33 34 35 36 36 38 39 40 39 38 39 44 50 60 74 88 95 95 95 97 91 81 84 94 96 93 91 85
66 76 75 56 49 61 70 74 81 81 68 59 62 67 62 51 46 47 45 42 39 35 34 35 33 32 32 31 32 35 35 36 39 41 40 40 43 48 48 39 34 36 37 36 40 43 44 44 40 36 34 34 35 37 37 38 38 37 36 37 39 39 37 38 41 44 46 45 44 44 47 56 71 84 93 98 98 96 97 91 81 81 92 97 94 91 87
74 80 78 65 59 63 66 71 84 89 78 67 68 69 61 53 51 51 48 46 44 40 38 38 37 36 36 34 31 30 31 31 32 33 35 35 37 40 40 36 36 38 39 40 41 41 45 50 50 45 42 41 41 41 41 43 43 43 44 46 45 43 40 41 44 47 48 49 50 50 52 63 79 90 93 98 100 98 96 96 92 89 91 93 92 89 86
76 78 81 81 77 68 58 59 74 83 76 70 74 74 68 64 61 56 50 47 45 43 41 40 39 38 38 37 36 33 31 30 30 30 30 30 30 31 32 32 32 34 35 37 37 37 43 52 53 49 46 46 46 46 48 50 52 53 55 54 51 47 47 48 49 50 52 54 55 57 63 72 80 85 89 94 99 98 97 97 93 89 90 92 90 89 89
73 74 81 87 84 74 65 62 68 74 75 76 79 77 75 75 72 62 55 51 47 47 47 43 41 40 38 36 37 37 34 33 32 31 31 29 28 28 27 28 29 32 37 42 44 44 46 49 49 49 50 52 54 54 55 57 60 62 62 59 54 52 53 53 53 55 57 58 60 66 73 78 82 87 91 94 96 98 97 93 89 89 95 98 95 93 93
67 72 79 83 80 75 71 68 66 71 78 82 82 77 73 73 69 61 58 56 54 53 52 48 45 43 40 37 36 37 38 37 34 31 31 30 30 30 29 29 29 29 34 41 47 50 52 50 48 49 52 55 57 59 62 65 68 69 66 61 56 56 56 56 58 60 59 59 62 67 75 82 88 95 98 97 98 100 99 94 91 92 96 97 96 96 93
61 67 76 82 81 77 74 72 72 72 72 74 77 75 70 68 67 61 56 54 53 51 50 48 46 45 43 42 40 40 42 43 40 37 35 32 31 32 32 33 32 31 32 34 37 44 51 55 56 56 56 60 67 73 75 77 77 75 69 62 59 60 62 63 64 60 55 54 58 65 76 88 96 99 100 100 100 99 96 93 92 94 96 96 96 97 94
59 65 73 79 82 83 79 75 75 74 71 70 73 71 65 64 67 65 57 53 52 50 48 48 47 45 44 44 42 42 46 50 47 42 38 35 34 34 33 33 34 33 33 31 31 36 45 51 54 56 59 67 80 89 89 86 82 77 69 64 64 67 68 67 62 52 46 49 56 63 75 89 96 98 99 99 96 93 93 93 92 95 98 96 93 92 94
56 62 68 71 78 86 84 79 78 81 82 80 77 73 68 67 67 64 60 57 55 52 50 49 48 47 47 47 46 44 47 49 47 41 37 36 35 35 35 35 35 34 34 34 33 36 43 48 51 57 64 73 82 88 89 89 85 79 73 71 72 72 68 61 51 42 39 45 54 64 78 92 98 99 100 98 92 90 93 96 94 91 89 87 86 88 92
53 60 62 63 70 77 78 81 89 94 90 84 79 72 67 67 66 64 63 60 57 55 54 52 50 47 45 43 41 40 42 45 44 40 38 37 35 33 34 35 35 35 36 34 33 38 47 55 62 70 78 83 86 88 88 88 86 81 77 74 69 62 54 47 41 37 37 41 51 65 80 89 92 92 94 92 87 85 90 94 92 87 84 84 87 89 89
59 65 65 68 76 81 80 84 91 89 81 79 78 69 57 53 55 55 55 54 53 52 50 47 45 42 39 36 34 37 44 50 48 45 44 41 36 34 35 36 38 40 41 38 37 44 54 63 70 78 83 85 87 87 82 76 73 71 66 60 54 48 44 41 39 39 38 39 50 67 81 88 90 90 89 87 88 91 95 95 91 87 86 90 93 90 86
72 75 71 72 79 82 78 79 83 81 73 70 68 60 51 48 48 47 46 45 45 45 43 42 39 35 32 32 34 38 46 51 49 49 52 50 43 40 40 41 43 45 45 43 42 48 57 61 64 71 76 75 73 71 66 61 59 58 54 50 48 46 45 43 43 43 42 43 50 61 72 82 90 91 86 85 90 94 92 88 84 82 84 91 96 91 86
72 71 68 68 70 72 74 76 77 74 67 60 50 40 35 36 40 42 41 36 32 32 33 33 32 29 28 31 32 34 41 50 52 51 53 52 46 41 42 45 48 50 53 56 55 58 66 67 61 60 64 62 57 55 54 54 54 54 52 51 52 52 51 50 50 51 51 53 57 63 71 80 88 89 86 87 90 88 83 79 77 76 78 85 91 88 84
69 65 62 60 59 60 63 63 59 54 53 53 46 32 22 21 28 34 33 23 17 16 17 18 19 21 26 34 36 33 35 42 46 44 41 38 36 36 40 46 51 54 60 68 73 72 72 69 63 60 60 59 56 56 57 59 62 63 60 60 63 63 62 61 61 62 64 66 70 75 81 88 93 94 93 92 88 80 75 72 71 71 73 76 79 80 79
56 55 55 54 51 47 45 49 55 57 55 53 48 36 25 19 17 18 19 15 10 9 10 12 12 13 16 20 22 21 21 21 22 25 26 24 24 31 38 45 53 60 65 73 79 79 75 73 73 74 73 70 70 71 70 73 78 76 68 64 67 69 69 70 71 73 74 74 75 79 83 90 97 97 93 87 81 75 73 73 71 69 69 69 70 73 75
45 45 48 51 51 45 39 42 48 44 37 34 31 28 28 27 19 9 8 8 5 6 10 11 11 12 14 13 11 10 11 12 11 14 17 19 24 33 39 43 52 63 68 68 70 74 78 80 83 85 84 83 84 82 79 81 84 79 72 69 73 78 81 82 82 81 79 75 74 78 84 92 96 91 83 79 78 78 80 81 76 69 67 69 69 69 72
35 35 36 37 38 36 32 30 27 19 14 15 16 17 24 32 28 19 14 12 10 11 12 12 13 14 13 15 17 15 11 11 13 12 12 16 23 31 37 41 48 60 70 71 69 72 77 78 80 83 86 86 83 78 77 81 84 83 82 82 84 88 92 92 89 86 83 77 73 74 78 82 83 79 76 78 82 84 87 87 81 74 73 76 75 73 73
24 24 27 31 35 35 28 24 21 16 11 8 8 14 26 36 39 38 38 36 32 25 16 19 39 51 41 29 26 20 10 10 16 15 13 17 20 23 32 40 40 47 62 70 68 70 75 76 76 79 82 81 79 80 84 89 92 93 93 94 95 95 96 94 90 87 84 80 78 77 77 77 79 80 83 87 90 93 95 93 86 82 81 80 78 78 80
35 30 32 37 41 36 29 27 26 20 12 8 11 22 39 50 50 49 52 55 56 48 30 21 38 56 50 31 19 13 8 12 16 13 14 18 20 29 51 57 38 27 42 56 57 63 74 76 73 75 76 76 79 85 89 92 94 95 95 95 95 93 92 93 94 91 86 83 84 81 77 79 83 86 89 91 92 95 98 96 92 92 93 90 87 87 87
41 40 40 40 36 30 29 29 26 19 14 15 19 29 45 54 49 47 57 67 70 68 53 29 16 20 24 17 9 7 8 11 12 12 15 17 16 30 58 61 31 10 22 39 44 52 64 70 71 75 77 75 77 81 81 77 77 81 86 87 86 85 88 93 95 92 88 87 86 81 80 86 91 90 88 88 88 91 95 95 92 92 94 94 93 92 91
53 57 55 44 34 31 27 23 19 15 11 10 13 25 42 53 53 55 67 74 69 67 67 51 29 20 18 12 9 14 19 16 12 12 14 11 6 13 31 35 17 4 13 24 30 39 51 60 69 78 81 81 84 87 82 70 63 66 77 86 89 91 93 92 88 85 87 91 92 88 87 91 92 87 84 87 91 94 97 97 93 91 91 94 96 95 94
65 69 63 42 27 23 20 17 22 24 13 6 13 25 36 46 55 65 74 74 63 58 61 58 46 34 23 12 17 36 48 43 35 32 32 29 22 14 13 13 10 8 11 15 20 30 37 40 49 66 80 89 93 92 84 75 70 70 73 79 85 90 95 96 94 93 94 95 93 89 85 84 84 84 88 94 98 98 97 97 95 94 94 96 97 98 97
83 88 81 56 37 35 39 47 60 60 41 28 31 37 43 53 60 60 61 60 49 38 39 45 46 40 29 18 18 29 37 35 31 35 47 57 51 32 18 13 12 12 13 14 16 21 25 24 30 48 68 83 90 87 79 76 80 82 76 71 72 80 87 91 91 91 91 90 88 85 80 78 79 84 88 91 93 93 95 96 96 97 98 98 98 98 98
94 94 83 64 51 49 52 59 69 68 57 47 41 37 41 55 57 45 41 46 42 30 31 41 43 36 32 34 37 40 46 51 47 39 39 47 45 30 19 19 17 13 14 17 15 15 18 20 22 31 45 58 70 76 75 76 82 87 81 71 71 79 87 89 88 87 87 86 84 82 81 83 86 88 88 88 89 94 98 99 98 98 99 100 99 98 98
81 77 67 58 54 52 47 42 39 40 49 64 68 57 49 55 59 56 58 60 48 30 25 33 37 33 29 32 36 41 52 71 79 65 46 39 36 25 18 21 23 19 17 19 17 15 17 19 20 24 32 42 53 65 73 77 79 81 77 73 75 82 89 91 91 89 86 81 78 80 85 89 90 90 90 89 92 97 99 97 96 97 99 100 100 98 97
66 64 58 52 51 53 50 43 39 40 51 70 85 83 70 61 60 62 63 61 54 46 41 41 42 38 31 28 36 44 48 58 72 71 54 43 42 37 25 23 28 29 27 26 26 23 23 24 24 27 33 38 46 56 66 68 66 68 73 76 77 79 80 81 80 79 76 73 73 78 85 89 92 94 95 94 95 99 100 97 96 98 100 100 99 98 96
50 50 47 43 41 42 40 38 41 46 48 53 65 73 69 61 60 62 61 60 67 75 70 56 42 32 25 30 49 65 61 53 58 64 58 51 52 51 39 29 28 30 31 32 35 36 36 37 38 39 41 43 46 53 58 59 57 61 68 70 68 69 74 76 75 74 74 73 72 75 81 87 92 98 100 99 98 100 101 99 98 99 99 98 99 99 96
53 56 55 49 42 37 33 30 30 30 28 31 42 52 58 67 79 80 70 65 71 80 81 78 75 72 67 65 68 68 59 45 39 44 51 55 54 50 44 39 35 32 31 32 34 35 37 40 43 45 47 50 53 56 57 55 52 52 54 55 57 61 64 66 69 76 83 85 81 79 82 86 90 95 99 100 100 100 99 100 100 99 96 93 92 89 86
72 72 69 63 59 57 52 45 37 29 25 27 32 37 49 74 91 79 55 52 69 82 86 90 90 83 79 82 79 71 64 55 42 37 46 53 45 32 31 37 38 36 36 38 38 38 39 40 41 43 45 47 51 53 52 50 49 47 44 45 51 53 50 48 56 69 81 85 83 80 80 83 86 90 94 96 97 97 96 97 97 95 90 85 81 77 77
89 83 78 78 83 86 79 67 56 49 44 46 48 45 45 58 67 53 35 43 66 78 84 95 94 74 61 67 74 70 68 68 62 54 57 58 43 27 26 34 36 34 34 33 34 39 42 39 37 40 42 43 45 47 44 43 47 49 44 42 48 52 48 44 49 58 65 70 73 76 77 78 79 82 88 93 96 98 98 96 91 87 83 79 73 69 71
Wind_Speed
13 13 17 24 27 28 29 29 30 32 32 31 32 32 31 29 24 19 18 23 21 14 14 17 17 16 16 15 13 12 11 9 7 9 15 21 23 23 24 25 26 26 27 28 29 29 28 28 28 29 31 32 31 30 29 29 30 31 32 33 33 32 31 29 28 29 29 29 30 29 27 26 27 27 28 27 26 27 27 28 27 27 27 27 26 25 24
13 14 17 22 26 26 27 28 29 30 32 33 33 32 30 29 27 22 17 18 22 21 16 14 16 16 14 14 12 7 6 7 6 4 7 15 22 23 23 24 25 26 27 29 29 28 27 27 28 29 30 29 29 29 29 29 30 32 33 34 33 33 32 30 29 30 30 30 30 29 29 29 28 28 28 27 26 27 28 28 28 28 29 29 29 28 25
13 15 15 16 21 23 25 27 29 30 32 32 31 31 30 30 29 25 20 17 18 22 23 18 13 11 9 11 10 6 6 7 7 4 3 8 17 22 22 23 25 26 28 28 28 27 25 25 26 27 27 27 27 28 29 29 31 33 34 34 33 33 33 31 30 30 31 31 30 30 30 30 29 29 28 27 27 27 27 28 28 29 30 29 25 22 20
12 15 14 13 16 20 23 27 29 31 33 32 31 30 30 30 29 26 26 24 19 18 23 24 17 11 11 12 11 10 10 10 9 7 6 5 11 19 21 22 25 27 27 27 27 26 25 24 24 24 24 25 26 27 28 30 32 33 34 34 34 34 33 32 31 31 31 30 30 31 31 30 29 29 27 25 25 25 25 26 28 28 28 26 21 18 18
10 13 13 13 13 14 20 27 30 30 31 30 29 29 29 29 28 26 28 27 21 16 17 19 18 14 13 14 13 12 12 12 12 11 10 7 8 17 21 23 26 28 27 26 27 26 24 23 23 23 22 23 24 25 27 29 31 33 34 34 35 35 34 32 31 30 30 31 31 31 31 29 29 29 27 25 23 23 25 26 25 23 22 21 20 20 20
9 10 11 12 12 13 18 25 27 26 27 27 27 28 29 28 27 26 24 22 21 19 19 18 17 15 14 14 15 15 15 15 14 13 12 10 7 15 21 23 25 26 25 26 26 25 24 24 23 21 21 23 24 24 25 27 31 33 35 36 36 36 34 32 30 30 31 32 32 32 31 29 29 29 28 27 25 23 23 23 21 20 19 20 21 21 18
9 11 11 11 12 13 15 16 20 23 25 24 24 25 26 26 26 26 24 21 20 21 21 20 18 17 16 14 15 18 19 17 15 15 13 11 8 12 17 19 22 23 24 25 25 25 25 24 22 22 23 25 25 24 25 29 33 35 36 37 37 35 33 31 31 30 31 32 32 32 31 30 30 29 29 28 26 24 23 23 23 22 21 21 22 21 17
8 9 10 10 8 9 10 9 13 20 22 23 24 24 25 25 25 26 26 24 22 21 21 20 18 17 16 15 17 18 19 19 20 19 14 10 8 12 14 15 19 21 23 25 25 24 22 21 20 23 25 27 28 27 27 29 33 35 36 36 35 33 32 32 31 30 30 31 31 32 31 31 31 30 29 28 26 25 25 25 24 22 20 20 20 19 17
9 9 9 8 6 6 9 8 10 14 18 21 23 22 23 23 24 25 25 25 25 25 23 21 18 16 16 18 20 20 21 22 22 20 16 10 10 15 15 15 18 21 22 22 20 19 18 19 22 25 28 29 28 27 27 29 31 34 35 34 33 32 32 32 30 29 30 30 31 31 31 32 32 30 29 28 26 27 26 24 22 21 19 19 19 18 18
10 9 7 7 7 5 6 7 9 13 17 20 19 19 21 22 24 26 26 26 28 27 24 21 18 16 16 17 18 18 18 18 17 18 16 11 10 17 18 17 18 19 19 18 16 16 18 21 24 26 27 27 26 25 26 28 30 32 33 33 33 32 32 31 30 30 30 30 31 32 32 33 32 30 29 28 27 26 25 23 21 20 18 18 19 18 20
12 11 7 5 5 3 3 4 8 13 18 20 17 15 18 19 21 24 25 26 26 25 22 20 17 16 16 15 14 14 15 13 12 13 12 8 11 18 20 19 19 19 18 17 17 18 20 22 24 25 24 24 23 23 24 26 28 30 31 32 32 32 31 30 29 29 30 30 31 31 32 32 30 29 29 28 27 26 24 23 21 20 19 19 19 20 22
12 11 9 6 4 1 0 2 5 9 15 19 17 11 11 13 16 20 23 25 24 22 21 19 17 16 15 14 12 12 13 11 10 11 11 8 13 21 23 22 22 20 18 17 17 17 19 20 22 22 22 22 21 21 22 23 25 26 27 28 29 29 28 28 28 29 29 30 30 30 30 29 28 28 28 28 28 27 25 24 23 23 23 21 19 21 23
11 11 9 6 4 4 3 2 3 7 12 16 15 9 7 11 16 19 21 22 22 20 20 18 15 14 15 14 12 12 13 12 11 12 11 9 15 22 23 22 22 21 19 18 17 18 18 19 21 21 20 20 19 19 20 20 21 22 23 24 24 25 26 27 28 29 29 29 29 29 28 27 27 28 28 27 28 28 27 26 25 24 23 21 19 21 23
11 13 11 5 2 2 3 3 4 10 12 12 12 8 6 11 17 20 21 21 19 19 19 16 14 14 14 12 11 14 15 12 11 12 11 11 16 21 21 20 20 19 18 18 18 18 18 19 19 20 20 19 18 18 18 18 18 19 20 21 22 23 25 27 28 28 28 28 29 28 27 28 29 29 28 29 30 31 30 28 27 25 23 21 20 22 23
9 11 9 3 2 1 4 6 7 10 7 6 8 6 4 8 12 15 20 22 22 20 19 17 15 14 13 10 10 14 14 12 11 11 9 10 14 17 16 16 16 15 15 16 17 18 18 18 18 19 19 19 19 18 18 18 18 18 19 21 22 23 25 26 26 25 26 27 28 28 30 32 33 32 32 33 33 34 33 29 26 24 22 20 21 23 23
7 7 5 2 2 2 4 7 7 8 5 5 5 2 2 4 6 9 15 22 23 21 19 19 18 15 12 11 11 13 12 13 15 14 12 13 14 13 12 12 13 13 14 15 16 18 18 18 18 19 19 19 19 19 18 18 19 20 21 22 23 23 24 24 23 23 24 25 27 30 33 35 36 35 34 33 33 33 31 26 22 20 19 19 21 21 20
7 5 5 6 6 3 3 8 7 6 5 4 5 4 3 2 2 5 10 15 18 19 18 17 16 14 13 12 11 12 12 15 18 18 17 18 18 16 14 13 13 13 14 16 17 17 17 17 18 19 19 19 19 18 18 19 21 22 22 23 23 23 24 23 23 23 23 24 25 28 32 34 34 33 31 30 31 29 25 20 18 18 18 18 19 19 19
7 6 6 6 5 3 2 5 8 9 9 8 9 9 10 8 6 3 4 7 11 14 15 14 12 12 12 12 11 12 14 19 23 22 20 21 21 20 19 17 15 14 15 16 17 17 16 17 19 19 19 19 18 19 19 20 22 23 23 23 23 24 24 23 23 23 23 23 24 26 29 31 32 32 30 29 29 26 22 19 19 19 18 18 18 18 18
8 7 7 7 7 6 5 5 4 5 8 11 12 13 13 12 11 9 7 6 7 8 9 10 10 11 13 14 14 14 18 25 28 26 24 22 21 21 22 19 16 17 18 17 17 17 18 19 21 21 21 20 20 20 20 21 23 24 23 23 24 24 24 23 23 23 23 23 24 26 28 31 33 32 30 29 28 26 24 23 22 21 20 19 18 17 17
10 8 8 7 6 7 8 8 8 8 7 9 10 11 12 11 11 10 10 10 10 10 10 10 11 12 14 16 17 18 21 27 30 29 27 23 20 21 22 20 18 20 21 20 19 20 21 23 24 23 23 22 22 21 22 22 24 24 24 24 24 24 23 23 23 23 22 22 24 25 27 29 31 30 28 28 27 26 25 25 24 22 22 20 19 18 19
11 9 8 8 7 7 10 9 8 10 11 8 7 6 6 8 9 10 10 10 11 11 12 13 13 14 14 15 17 18 20 23 26 28 26 22 18 19 21 21 21 23 24 23 22 22 23 25 25 24 23 22 22 22 23 23 23 24 24 25 26 25 24 24 23 22 22 22 23 24 24 24 27 29 29 28 26 24 24 23 22 22 22 22 21 20 20
10 7 8 10 8 8 11 12 9 9 11 10 8 7 7 6 6 7 8 9 9 10 10 11 13 14 14 14 15 15 15 16 19 22 22 20 19 19 20 19 19 22 24 23 22 22 24 25 24 23 23 23 22 22 24 24 24 25 26 26 26 24 22 20 19 19 20 20 21 22 22 22 23 25 26 26 26 25 25 23 21 22 23 23 22 22 22
11 7 8 10 9 8 11 12 11 11 11 11 10 10 9 9 8 6 4 4 6 8 8 8 9 10 11 12 13 13 14 14 15 17 18 19 20 19 18 17 16 19 23 23 22 23 24 23 23 23 24 23 23 24 25 26 26 28 28 28 25 22 19 18 18 18 19 19 20 21 22 22 23 23 25 27 28 26 24 23 21 22 22 23 23 23 23
14 10 10 12 12 11 11 11 12 13 13 12 10 9 9 10 10 9 7 7 6 4 3 3 4 5 6 7 9 11 12 12 14 15 17 18 18 17 17 17 17 20 23 24 23 23 23 23 24 25 25 25 25 26 27 28 28 30 30 28 26 23 22 23 23 23 22 21 20 21 22 23 24 24 25 27 27 26 24 23 22 22 21 22 22 22 22
14 13 14 15 15 14 13 12 12 14 15 14 12 9 8 10 11 10 10 10 11 11 10 7 4 3 2 2 4 6 7 8 10 11 13 14 15 15 16 17 19 21 23 23 23 22 22 25 27 27 27 28 28 28 29 29 29 28 27 26 25 25 25 25 25 25 24 23 22 23 23 24 25 25 26 27 26 25 24 22 22 21 21 20 21 21 23
12 13 14 13 12 12 11 11 12 15 15 12 9 9 8 6 6 8 9 10 11 13 15 14 12 10 7 6 5 5 5 6 6 7 8 10 11 12 14 16 18 20 22 24 24 24 25 28 29 29 29 29 29 29 30 30 28 27 25 25 25 25 25 24 24 24 24 23 23 23 25 26 26 26 25 25 25 24 22 21 21 21 22 21 21 21 22
11 12 11 9 6 8 10 10 12 14 14 10 7 7 8 6 5 7 8 10 11 12 13 15 16 15 14 13 11 9 9 9 8 8 9 9 9 10 11 12 13 14 16 19 21 23 25 27 28 28 29 30 30 30 31 30 28 27 26 25 25 24 24 24 24 24 23 23 24 25 27 27 26 24 23 24 23 22 21 20 20 21 21 21 20 20 21
13 13 13 10 6 7 10 10 10 12 14 11 8 7 8 7 6 7 9 9 9 9 9 10 13 15 16 17 17 16 14 13 12 12 12 11 11 11 11 11 11 11 12 14 17 19 21 22 24 26 28 29 30 31 31 30 29 27 26 26 25 25 25 25 25 25 24 24 25 27 27 26 23 22 23 24 23 22 21 21 21 22 22 22 21 21 22
13 15 16 15 10 6 8 10 11 12 13 10 7 7 9 9 7 8 10 10 9 10 10 10 11 12 13 15 18 19 17 15 14 15 15 15 14 14 14 14 13 13 13 14 15 16 18 20 22 24 27 29 32 33 33 32 30 28 27 27 26 25 25 25 25 25 24 24 26 27 26 24 23 24 25 26 25 24 23 23 22 22 23 23 22 23 24
12 12 15 17 14 10 9 10 11 12 12 10 9 10 11 10 9 10 11 11 12 12 12 13 13 14 14 14 16 18 18 16 15 16 17 17 16 16 16 16 16 16 16 16 16 17 18 20 22 23 25 29 33 34 33 31 28 27 27 26 25 25 25 25 24 23 22 23 25 26 25 25 25 25 26 26 25 23 23 23 22 22 24 25 25 25 25
12 11 13 16 16 16 15 10 9 10 11 9 10 12 13 13 13 13 13 13 13 14 14 15 16 16 16 16 16 17 18 17 17 18 19 19 18 18 18 17 17 17 17 17 18 18 19 20 21 22 24 28 31 31 29 25 23 23 24 24 24 24 25 24 24 22 22 22 25 26 25 25 26 27 27 25 23 21 22 22 22 22 24 26 26 25 24
12 12 14 14 15 19 19 9 6 8 8 7 7 11 13 13 14 15 14 15 15 15 15 16 16 15 15 15 15 15 16 16 16 18 19 19 19 19 19 19 19 18 18 19 19 18 19 20 20 21 24 26 26 25 23 21 20 21 22 23 23 23 22 22 21 22 22 22 23 24 24 25 25 27 27 25 22 21 22 23 24 23 23 24 25 24 23
11 12 12 11 11 14 15 10 9 9 9 8 8 10 10 11 12 13 13 14 14 15 15 15 14 14 14 14 14 13 13 13 14 15 16 17 18 18 18 19 18 17 18 19 18 17 18 20 20 21 22 22 20 20 20 20 20 21 21 20 20 19 19 18 18 19 20 20 20 21 23 24 25 26 26 24 22 22 23 25 25 24 22 22 24 25 23
9 10 9 7 6 8 10 11 10 8 6 6 7 8 9 10 12 13 13 13 14 14 15 14 14 14 15 14 14 14 13 12 13 13 14 15 16 16 17 17 17 16 17 18 17 16 17 19 20 20 20 19 19 19 20 20 20 19 19 18 18 17 17 17 17 17 17 17 18 20 22 24 25 27 27 25 23 23 24 25 24 22 21 21 23 25 24
8 6 5 3 3 6 8 8 6 4 3 5 7 8 9 12 13 12 13 14 14 15 15 15 15 15 15 14 15 15 15 14 14 14 14 14 15 16 16 16 16 16 16 15 15 15 16 18 18 18 18 19 19 18 18 19 18 18 18 18 17 17 18 18 18 18 18 18 19 20 22 23 25 26 25 23 22 22 22 22 21 20 20 21 23 26 25
7 4 2 2 1 1 2 3 1 1 1 5 8 10 11 12 13 13 13 13 14 15 15 15 16 16 15 15 16 16 16 16 16 16 16 17 17 17 17 16 17 17 16 15 16 16 17 17 16 16 17 17 17 16 17 17 17 18 18 17 16 18 20 20 19 19 19 19 20 21 22 23 24 24 23 22 21 21 20 19 18 17 18 20 23 25 25
4 3 3 4 3 3 3 4 4 4 5 7 9 12 13 13 14 15 15 14 14 14 15 15 15 15 15 16 17 17 17 18 17 17 18 18 18 17 17 17 17 18 18 18 18 18 18 17 16 16 17 17 17 17 17 17 18 20 19 18 19 20 21 20 20 20 20 19 20 21 22 22 23 23 22 21 22 22 21 19 17 17 18 20 22 23 24
4 5 5 5 5 5 5 5 6 8 9 10 12 13 14 14 14 15 15 15 15 15 15 15 15 14 15 16 17 17 17 17 17 17 18 18 17 17 17 17 17 18 19 19 20 19 18 18 18 19 19 19 18 18 18 19 20 22 22 21 22 22 22 21 21 20 19 19 19 20 20 21 21 22 22 22 23 23 22 21 20 19 20 20 21 21 22
6 6 6 6 6 6 6 7 8 10 11 12 13 13 14 15 14 14 14 15 15 14 14 14 14 14 16 16 16 17 17 17 17 17 18 18 18 18 18 19 20 19 19 19 20 19 18 19 20 20 21 20 20 20 21 22 23 24 23 22 21 21 21 21 20 19 19 19 18 18 18 19 20 21 22 23 24 24 24 25 25 24 22 20 19 20 22
6 5 5 6 7 7 7 8 10 11 12 13 13 13 13 14 13 12 13 14 14 13 14 13 10 9 12 15 16 17 17 17 16 17 17 16 17 18 19 20 22 21 20 21 22 20 18 18 19 19 20 21 21 22 22 21 21 21 21 21 21 21 21 21 21 21 20 18 17 17 17 17 20 23 24 25 27 27 27 28 29 26 22 20 21 22 23
7 6 6 7 8 9 9 10 11 12 12 12 12 11 10 11 10 11 13 16 15 13 13 13 12 11 11 14 16 16 15 14 16 17 16 16 17 16 15 17 22 23 23 23 23 20 18 18 18 17 18 20 19 18 17 17 18 19 21 21 21 21 20 20 21 21 20 17 16 17 19 20 22 24 25 27 29 30 28 27 27 25 24 23 24 25 26
7 6 7 8 10 11 11 12 12 12 11 11 10 10 9 9 10 11 13 15 14 11 10 12 16 16 15 15 14 14 13 14 16 16 16 17 17 16 14 17 20 22 22 23 23 21 19 18 18 19 19 18 16 15 16 17 19 20 20 19 18 19 20 21 22 21 21 19 17 18 21 23 23 24 25 27 28 28 27 25 24 24 24 25 26 27 27
7 7 8 10 11 12 13 13 13 13 12 11 11 10 9 9 10 10 11 14 13 10 7 7 10 13 14 13 12 11 11 12 13 13 14 16 16 16 18 19 19 17 17 21 22 21 20 20 20 21 20 18 17 17 18 19 18 17 17 17 17 18 21 22 22 21 21 20 18 18 21 23 23 23 24 25 25 25 25 24 24 23 24 25 27 27 27
7 7 8 10 11 11 12 12 10 11 12 13 11 10 9 9 9 10 12 13 12 9 6 5 6 7 10 11 10 8 6 7 8 9 9 11 12 14 17 18 17 15 15 18 20 21 21 22 21 21 21 20 19 19 19 19 18 18 19 20 21 20 20 20 19 19 20 20 19 20 23 23 23 23 23 23 22 23 23 24 23 23 24 25 26 26 26
8 7 8 9 9 8 7 5 4 6 8 8 7 7 7 9 10 11 10 9 7 6 5 4 4 6 7 8 8 7 7 7 8 7 6 7 9 11 13 14 14 14 14 15 17 19 20 20 20 21 22 22 21 20 19 20 21 22 22 22 21 21 20 21 20 20 21 21 21 22 23 23 22 22 23 23 22 22 23 24 23 23 23 25 25 25 25
11 10 10 10 9 7 6 6 7 7 5 4 4 5 4 5 7 7 5 4 4 5 5 5 5 6 6 5 5 6 5 4 5 6 7 7 9 10 11 11 12 13 13 14 16 17 18 18 18 20 22 23 22 22 22 23 24 24 23 22 21 20 21 22 22 22 23 23 23 23 23 22 22 22 22 23 22 22 22 23 22 22 23 24 25 26 27
13 13 13 11 10 9 8 9 9 7 5 3 4 5 4 2 3 4 3 3 4 4 5 5 5 5 6 6 6 6 6 5 4 4 6 8 9 10 10 11 11 12 13 14 14 15 16 16 17 18 20 21 22 22 23 24 25 24 22 21 20 20 22 23 24 24 24 24 24 23 22 21 21 21 22 22 20 20 22 23 22 22 24 26 27 28 28
14 14 14 13 12 10 9 9 9 8 7 6 5 4 3 3 1 3 4 4 3 2 2 2 2 3 5 6 5 4 5 7 6 5 6 7 8 9 11 11 11 12 12 13 13 14 14 15 15 16 17 19 20 20 21 22 22 21 20 20 20 21 22 24 24 24 25 26 25 23 21 21 20 21 22 21 19 20 23 24 23 22 25 28 29 30 30
18 17 16 16 14 13 12 12 11 11 10 10 10 7 5 2 1 1 1 1 0 0 2 2 2 1 2 3 3 2 3 6 7 7 8 9 9 10 11 11 11 12 12 12 13 13 14 14 14 15 16 17 18 19 20 20 20 20 20 20 21 21 22 23 24 25 25 26 25 24 23 22 21 21 21 21 20 21 23 24 23 24 26 28 29 29 29
21 22 20 17 15 14 14 14 13 12 12 12 12 10 8 5 4 5 4 2 2 2 2 2 1 2 2 0 1 2 3 6 6 6 7 9 11 12 12 12 12 12 12 12 13 13 14 14 15 16 17 17 18 19 19 20 20 20 20 20 21 21 22 24 24 24 24 25 26 25 24 23 23 23 22 21 21 22 23 23 24 25 26 25 24 25 25
25 23 20 18 17 17 16 14 13 12 12 11 11 11 11 9 8 9 8 7 6 5 4 3 2 2 1 1 2 2 3 3 4 3 3 5 8 10 11 11 11 11 12 12 12 13 14 14 15 16 17 17 18 19 19 20 20 20 20 20 20 21 23 23 23 23 23 24 25 25 24 23 23 23 23 22 23 24 24 24 23 24 24 23 22 23 23
20 19 18 19 20 19 19 17 16 14 12 12 12 11 12 12 11 10 10 10 9 9 8 6 5 5 4 4 4 4 5 5 4 3 2 3 4 4 5 6 7 8 10 10 11 11 12 14 15 16 17 17 18 19 20 20 20 21 21 21 21 22 23 23 22 23 24 24 24 24 24 24 24 23 23 24 25 25 24 23 22 22 22 23 24 24 22
Wind_Direction
239 231 208 196 196 202 204 206 208 206 207 212 216 217 217 216 220 220 211 214 219 210 183 172 167 163 159 154 156 160 168 180 191 208 217 215 212 210 211 217 223 227 230 229 227 225 225 226 224 221 220 222 222 220 218 218 219 219 219 219 221 225 229 230 231 232 232 231 232 233 233 234 236 237 239 242 245 248 249 250 252 254 256 258 258 255 250
235 235 223 203 198 203 207 209 211 209 210 214 217 220 220 218 221 224 218 215 219 216 203 176 159 158 163 164 166 168 181 202 218 226 220 214 211 213 218 222 226 230 229 227 225 224 221 219 218 218 220 222 223 222 219 218 218 218 219 219 220 224 229 231 232 232 231 230 232 233 234 236 238 239 242 245 248 251 253 255 256 258 260 261 259 256 253
224 230 232 209 200 206 209 209 210 211 212 215 216 218 220 220 221 221 222 226 225 218 214 206 180 170 190 197 201 225 232 224 235 263 269 223 210 212 219 225 229 230 227 224 222 218 214 213 215 219 222 224 225 224 222 219 218 217 218 218 219 223 229 232 232 232 231 230 232 234 236 238 240 243 244 245 248 253 256 258 260 264 268 271 271 268 265
222 223 228 221 214 215 216 213 210 209 211 213 214 214 215 218 220 220 222 227 231 219 214 222 231 237 236 228 230 249 249 236 237 255 288 267 211 209 216 223 226 227 224 221 216 210 209 212 216 221 224 226 227 227 225 222 220 217 217 217 219 223 228 232 233 233 232 231 232 235 238 240 243 246 246 244 248 255 258 261 262 264 270 279 290 294 281
227 219 214 223 229 226 222 216 210 209 211 212 214 215 215 216 217 219 221 225 230 224 215 228 243 245 241 239 243 252 249 239 241 253 280 289 219 206 213 218 220 222 220 215 209 207 210 213 216 222 226 229 231 230 228 225 221 217 215 216 219 224 228 231 233 235 234 233 234 236 239 242 244 247 248 247 251 257 260 263 263 262 268 281 295 298 286
233 229 217 217 223 225 223 216 212 213 213 212 214 216 216 217 217 220 225 227 228 228 230 240 248 248 249 248 245 245 238 233 242 250 266 286 246 210 213 218 220 221 217 210 207 209 211 210 214 220 226 231 234 232 228 223 219 216 215 216 220 224 228 231 233 235 235 235 236 238 241 243 245 248 250 251 253 255 258 262 266 270 279 285 290 291 281
244 242 225 211 216 222 219 215 214 215 214 214 217 219 218 218 218 221 227 228 228 229 234 243 249 252 255 249 243 245 237 231 245 253 259 278 259 213 211 216 217 217 213 209 207 207 207 207 213 223 230 235 236 230 224 219 216 216 216 218 221 225 228 231 234 236 237 237 239 241 243 244 247 249 251 252 254 256 260 265 270 275 280 282 285 285 271
270 258 232 217 221 219 210 212 212 210 211 212 214 218 219 216 217 220 223 225 227 227 231 238 245 250 252 244 239 242 238 239 252 259 261 269 239 206 201 205 207 206 203 202 202 202 204 209 218 227 233 236 234 227 221 218 216 217 218 220 223 226 228 232 235 237 239 241 243 244 245 246 248 250 252 253 256 260 264 268 271 273 275 278 280 274 256
267 271 252 229 225 216 209 213 206 202 209 211 211 217 220 218 218 220 222 225 227 229 232 236 239 244 249 248 244 242 244 249 255 255 256 255 220 201 195 192 195 193 190 191 194 199 206 213 219 225 230 234 233 226 221 219 218 218 220 223 226 228 231 234 237 240 242 244 246 247 247 248 250 251 252 253 256 261 264 267 272 274 274 278 277 263 246
270 287 270 228 223 209 193 206 207 201 205 203 205 218 223 221 220 219 222 226 228 230 232 232 235 240 246 251 250 243 243 251 254 250 251 248 215 200 195 189 189 188 186 188 194 201 209 214 218 223 229 232 230 224 220 219 219 219 221 224 227 231 234 237 240 242 244 246 247 248 248 250 252 253 253 254 256 258 261 264 269 271 271 276 276 261 246
280 292 289 256 239 189 155 228 227 210 202 192 192 215 226 222 220 219 221 225 228 229 226 223 226 233 237 242 240 228 229 243 254 255 256 245 205 196 193 190 189 189 190 193 198 204 211 215 217 220 223 225 224 221 218 218 219 220 221 224 227 232 236 239 241 244 246 247 247 247 249 250 252 253 253 256 256 254 256 262 265 263 261 263 265 259 251
277 284 288 294 299 311 121 257 234 213 203 191 187 209 224 214 214 218 220 222 224 221 216 217 222 226 231 237 231 217 224 244 262 271 274 253 206 195 193 193 193 195 196 198 202 206 211 211 209 211 214 217 217 216 216 217 219 220 222 225 229 233 236 239 242 244 246 247 247 247 248 249 251 253 255 258 258 255 255 260 262 258 256 256 254 254 253
272 275 268 253 271 302 324 315 219 195 186 184 188 205 214 202 204 211 215 218 218 214 211 215 219 224 231 237 231 223 232 250 266 270 269 247 209 202 202 200 199 200 200 198 200 202 204 202 201 204 208 210 212 213 214 217 219 220 223 226 229 233 236 239 243 244 245 245 245 244 246 247 248 250 251 253 257 256 257 261 261 256 256 259 259 256 253
272 277 267 223 184 316 9 60 149 165 163 178 193 199 207 204 196 196 202 207 206 208 212 212 211 220 230 231 224 225 231 245 262 262 253 233 215 211 209 203 200 201 199 196 194 194 196 198 199 201 204 205 208 210 210 213 215 217 221 225 227 232 236 238 241 243 244 244 243 242 243 243 242 243 246 252 257 259 259 263 264 257 254 258 261 259 253
272 284 275 217 130 27 60 91 144 161 156 184 198 196 220 208 184 185 199 202 198 201 206 207 208 221 237 240 227 225 228 235 241 237 224 217 217 215 211 203 200 201 199 194 190 189 190 196 199 201 202 201 200 199 200 204 209 214 219 224 227 231 236 238 241 245 246 245 240 236 235 238 240 244 249 254 256 257 257 260 263 260 259 261 263 261 257
260 293 313 347 296 284 74 100 158 179 170 179 187 193 266 214 174 184 201 203 204 209 214 218 221 229 245 249 231 223 228 231 224 210 191 193 204 210 212 209 202 197 192 187 187 188 190 196 201 202 201 197 192 192 196 203 209 215 220 224 228 232 237 242 247 251 251 247 240 234 233 237 242 245 248 251 254 254 254 254 257 262 265 264 262 263 262
243 267 322 325 292 271 97 104 122 128 122 145 151 110 76 89 167 206 206 205 210 217 221 227 230 233 239 239 227 223 226 219 211 202 190 189 197 206 211 211 205 197 189 186 188 191 193 198 202 201 199 195 193 195 201 208 214 219 223 227 233 237 242 247 251 252 249 245 241 237 233 235 239 241 244 250 257 258 254 252 260 271 273 266 260 262 263
247 250 280 274 241 219 170 124 101 84 86 111 129 116 97 88 93 128 182 201 210 216 221 224 226 225 225 222 218 221 216 203 199 199 194 191 198 204 206 206 206 203 200 196 195 197 200 200 198 197 197 198 200 203 208 214 221 225 227 231 236 240 243 247 248 247 246 244 241 237 232 230 232 236 243 250 254 254 253 258 268 275 273 263 257 258 259
244 247 256 238 204 189 191 169 139 110 97 105 116 117 108 103 105 112 126 146 168 188 202 209 211 209 208 206 207 207 201 196 197 199 198 196 198 201 203 206 208 206 206 205 201 202 204 200 195 197 202 205 207 211 214 219 226 230 232 234 238 241 244 245 244 244 245 246 242 237 233 230 232 238 245 250 251 251 256 262 266 266 265 261 256 253 253
241 247 249 239 219 202 191 178 181 187 158 120 116 116 111 109 110 114 121 127 135 147 157 167 179 186 191 196 199 197 195 197 200 199 195 194 195 196 200 205 206 204 205 205 203 203 203 201 201 205 209 211 214 218 221 224 229 233 235 237 240 242 244 244 245 245 246 247 244 239 236 235 237 242 246 250 252 254 256 257 256 256 258 256 250 247 247
238 245 247 247 247 225 210 204 195 189 183 169 151 142 133 122 112 111 118 122 125 131 138 145 154 162 171 183 191 193 194 198 203 201 196 195 201 208 210 209 208 207 206 205 203 202 203 206 209 212 214 217 221 224 227 230 233 236 238 240 242 244 245 246 248 250 251 250 246 242 239 238 240 243 245 247 250 252 253 255 256 254 250 245 241 242 244
230 235 244 249 249 232 220 221 215 200 196 192 183 184 190 175 147 128 122 122 124 124 127 137 146 151 159 169 180 187 188 191 200 202 198 197 202 210 217 217 214 214 214 212 208 207 209 213 216 217 219 224 227 229 232 235 238 240 242 244 246 249 251 253 257 259 258 256 252 246 242 241 243 244 244 245 247 248 251 254 253 247 243 241 241 243 243
227 238 255 249 243 241 233 223 215 214 218 214 203 200 207 208 199 186 166 148 136 125 120 125 137 145 154 162 171 178 181 182 189 196 201 204 202 203 211 218 222 227 230 227 220 215 215 219 221 222 224 227 230 232 235 237 239 240 241 243 245 247 251 259 267 268 264 261 257 250 244 244 246 247 247 248 249 251 255 256 249 242 242 243 243 243 245
233 245 259 247 237 242 240 221 207 209 217 221 216 211 219 223 219 218 225 228 221 202 163 129 127 140 148 156 165 173 177 179 182 187 196 205 206 206 213 222 228 234 238 237 231 226 224 225 226 227 228 229 230 234 238 241 242 242 242 245 246 246 249 257 262 263 261 259 257 254 250 249 250 250 251 252 253 257 262 259 249 244 246 246 245 246 249
241 246 253 249 239 236 236 228 219 215 213 211 204 198 216 235 237 233 235 242 247 248 244 244 253 250 217 192 187 183 182 183 185 189 195 202 207 210 215 220 225 230 234 236 237 236 233 230 230 230 231 232 235 239 242 244 244 243 244 247 249 251 255 259 260 259 259 258 256 254 252 250 251 252 253 254 255 260 262 255 244 242 248 251 252 254 253
249 248 253 256 243 228 225 229 231 229 226 220 201 177 174 200 228 232 234 240 247 250 248 248 252 257 264 272 272 259 242 227 215 211 213 213 214 216 218 221 223 224 226 228 231 232 231 231 233 235 237 239 242 243 244 244 243 242 244 245 248 252 257 259 258 257 258 258 256 253 251 250 251 253 253 254 257 258 255 248 243 245 250 253 255 256 255
258 258 264 268 241 215 216 219 221 223 223 223 222 204 184 178 197 216 225 231 236 243 247 248 249 253 261 269 275 279 279 273 261 251 246 242 238 235 231 229 228 224 223 224 226 229 231 233 237 240 242 243 244 244 244 244 242 242 244 245 247 252 255 255 256 256 256 255 253 250 249 251 253 253 253 256 259 256 247 244 246 250 251 251 253 254 255
261 267 274 275 246 215 219 222 223 224 222 218 223 226 216 206 209 221 230 237 242 245 249 250 251 253 258 264 269 275 281 283 278 273 270 270 270 267 262 256 250 242 235 231 230 231 234 236 239 241 242 243 244 244 244 242 241 242 243 244 247 252 254 255 257 258 257 255 251 249 249 251 253 252 252 255 258 256 251 248 250 253 255 254 252 251 252
267 268 277 282 274 244 229 229 229 230 229 223 216 216 216 215 217 222 229 238 247 251 254 257 259 260 261 263 267 271 277 282 282 281 280 279 279 278 275 271 268 260 252 246 241 238 237 236 237 238 240 241 241 239 238 237 237 239 242 245 248 252 255 257 260 261 259 254 250 249 248 247 246 248 249 251 254 257 258 256 255 255 258 257 254 253 255
284 276 279 286 288 285 271 248 229 224 222 212 204 213 221 225 232 235 236 240 246 252 257 260 262 264 265 264 264 267 272 275 275 277 277 275 273 273 271 269 267 262 257 253 249 243 240 238 237 237 239 239 238 235 233 234 236 238 242 246 249 253 257 260 261 260 256 249 246 247 245 242 243 247 249 251 254 257 258 259 258 256 258 260 259 261 263
298 292 286 285 282 279 273 252 209 206 217 213 213 223 227 230 237 243 247 250 252 256 260 262 262 264 264 263 262 263 265 266 266 268 267 265 263 263 262 260 260 259 256 253 249 245 242 242 241 242 242 242 242 242 241 240 240 243 247 251 254 256 259 259 257 255 250 244 242 243 242 240 243 246 249 252 256 256 256 259 262 263 263 263 262 263 265
300 298 294 287 275 266 263 247 168 176 203 206 216 232 234 237 244 248 252 256 258 258 259 260 260 261 261 261 260 260 260 260 259 259 259 259 257 256 256 256 256 256 254 253 252 249 247 247 247 246 244 244 247 250 250 247 247 251 254 256 258 259 259 258 255 252 248 243 240 239 240 241 243 246 250 255 260 260 259 263 267 267 264 263 265 267 269
302 304 304 299 280 259 246 217 179 184 196 193 207 231 242 249 254 254 254 256 255 254 255 255 254 254 255 255 256 256 254 253 253 252 253 254 253 253 253 253 253 254 255 255 253 251 250 250 250 249 249 248 250 251 250 248 249 253 255 257 258 259 259 258 256 254 251 247 243 242 244 246 248 252 256 259 261 261 263 266 268 265 262 264 270 272 272
289 296 298 293 269 237 220 203 194 202 214 216 226 244 260 266 263 259 259 259 255 252 253 252 251 251 250 249 248 246 245 247 250 250 250 251 251 251 251 251 252 253 254 255 253 250 247 248 248 247 247 248 248 247 247 247 249 251 253 256 258 259 260 260 259 260 260 256 250 247 248 247 248 253 257 260 261 261 262 263 264 263 263 268 273 275 275
268 279 286 276 235 213 212 206 192 186 222 254 264 271 275 276 273 268 264 265 265 262 259 257 256 254 252 249 245 241 239 240 241 241 243 248 251 252 253 253 253 252 251 253 254 249 243 244 246 245 246 247 248 248 248 250 251 253 256 258 259 259 260 260 261 262 262 257 252 250 250 250 251 254 257 259 259 258 257 257 259 264 270 275 277 278 280
262 250 232 235 244 235 238 241 206 119 266 274 276 277 277 279 280 278 274 274 274 270 265 262 259 254 250 246 242 239 238 237 237 240 244 248 251 254 256 256 256 255 252 251 251 248 246 246 247 247 248 249 250 251 251 252 254 256 260 262 262 260 261 263 264 264 262 257 252 250 249 249 250 253 255 255 252 248 248 251 257 266 272 275 277 278 280
266 248 241 248 269 303 311 303 298 291 283 278 277 279 282 282 278 276 277 277 274 269 266 263 259 254 249 246 243 242 242 242 242 244 247 248 250 254 256 256 257 258 255 251 249 251 255 256 251 247 248 249 249 250 252 253 256 260 265 267 266 264 265 268 269 266 262 258 255 253 251 250 249 250 250 247 243 241 243 247 252 260 266 270 273 276 278
264 267 273 277 281 286 290 289 282 281 282 282 281 282 284 280 274 271 271 269 265 261 260 259 257 253 248 245 244 244 244 244 243 243 243 244 244 245 247 249 249 249 251 251 250 250 253 252 247 244 246 248 249 251 254 255 257 261 265 267 267 268 270 271 268 263 261 261 260 256 251 247 245 243 241 239 240 243 247 248 249 254 259 264 270 276 278
247 246 254 263 267 271 278 286 291 292 290 286 281 281 282 280 276 273 269 263 257 253 252 251 251 249 247 246 246 244 242 241 242 241 241 240 239 237 238 242 243 243 247 252 252 250 250 249 247 245 246 248 252 255 256 255 257 259 263 265 268 271 273 270 264 260 261 265 266 259 249 242 240 240 240 241 244 247 247 247 249 252 254 259 267 274 277
235 231 241 249 254 264 282 293 296 296 292 286 280 278 277 277 276 274 269 263 258 252 249 245 244 244 244 242 242 242 241 239 240 241 240 239 239 238 239 242 243 242 243 246 248 249 249 250 250 249 250 252 254 255 254 255 258 261 263 266 268 270 270 267 263 261 263 268 269 265 258 252 249 249 249 251 251 250 249 251 254 257 262 267 273 275 275
230 244 257 259 262 276 292 298 296 295 293 286 277 271 269 269 266 265 267 268 267 262 253 244 239 239 242 243 244 246 245 240 240 241 240 238 238 239 240 243 242 238 237 241 244 245 244 244 245 247 250 252 254 255 257 260 261 261 262 263 265 267 267 267 264 261 261 266 271 271 266 264 263 262 261 262 260 257 255 258 263 268 272 275 277 276 275
241 252 261 269 279 289 295 295 294 293 290 280 268 260 256 254 251 253 261 268 271 270 260 247 241 242 247 251 252 251 246 241 239 239 238 237 237 235 236 244 247 242 237 238 240 239 238 238 239 240 243 245 247 252 259 262 259 257 258 261 263 263 261 261 260 257 254 256 266 272 270 268 269 269 268 268 267 263 262 266 273 276 276 277 277 276 276
239 242 255 270 282 289 292 293 292 289 282 273 262 249 240 240 244 245 249 255 260 264 265 254 243 241 245 248 249 249 247 244 241 238 236 237 237 234 235 246 256 255 242 237 238 238 236 235 235 237 240 242 243 249 260 265 262 256 255 258 261 260 259 259 261 260 256 256 263 271 271 269 270 270 269 269 269 268 267 271 275 276 276 277 277 276 276
227 229 251 269 279 286 292 296 295 286 277 269 257 239 226 228 236 238 241 249 257 258 253 245 238 236 236 236 235 237 240 241 239 236 235 236 238 236 237 244 255 256 245 238 237 237 236 234 233 235 239 241 242 246 256 265 265 259 255 253 253 254 257 259 260 260 259 260 262 265 267 266 266 267 269 271 271 270 270 272 272 273 274 277 279 279 278
219 217 238 259 272 283 291 287 275 277 280 274 257 235 217 214 222 231 238 249 258 253 240 231 231 233 234 231 228 230 237 240 238 233 227 230 237 240 239 241 247 249 245 239 236 237 239 238 235 234 236 240 242 243 249 257 262 264 263 257 249 246 250 255 256 257 260 262 264 265 267 266 263 262 264 266 266 266 267 268 268 271 273 276 279 281 280
204 211 225 242 254 261 258 245 245 263 289 302 292 280 255 220 217 227 242 257 256 241 228 222 225 228 227 225 223 224 228 240 245 239 235 241 249 248 242 239 243 245 244 243 242 241 242 242 238 235 235 237 239 240 244 250 256 262 264 259 250 244 245 249 252 253 256 260 262 264 265 264 261 259 260 261 261 262 264 266 270 274 276 277 278 280 279
211 216 224 233 240 247 252 249 249 258 273 285 287 294 294 257 208 208 229 261 270 247 222 214 220 222 219 220 224 220 208 198 204 221 233 246 257 254 243 238 240 242 242 244 244 243 242 242 240 237 235 235 235 236 239 244 249 253 255 253 248 244 243 246 249 251 253 255 257 258 258 258 258 258 259 259 260 262 265 269 274 278 278 278 280 280 279
223 222 224 225 226 229 234 237 234 233 233 232 233 251 280 289 241 204 218 239 258 268 244 226 225 220 214 214 220 225 213 201 197 203 217 233 250 255 246 239 239 239 240 241 242 241 240 238 236 234 232 232 232 233 236 239 242 244 246 246 246 245 245 247 249 250 251 251 251 251 251 252 254 256 258 260 261 263 265 270 276 278 277 279 282 284 283
231 231 230 228 225 222 223 226 228 225 222 220 219 220 230 251 259 247 245 227 148 317 296 293 308 303 231 209 205 228 229 218 212 208 207 213 229 244 245 240 238 238 237 237 238 238 236 235 233 232 230 230 230 231 234 237 239 240 242 244 246 247 247 249 250 250 251 253 254 253 250 249 249 251 255 259 262 264 267 271 275 276 275 277 279 280 280
229 231 228 226 227 229 228 227 227 223 219 216 212 206 201 202 214 223 223 198 169 194 238 277 329 5 8 308 224 260 272 266 259 240 219 218 230 240 240 236 235 237 237 237 237 236 235 235 234 233 232 233 233 233 235 239 242 243 244 246 248 248 249 249 250 251 252 255 257 257 255 252 249 249 251 255 258 261 264 268 272 274 275 275 274 273 273
231 235 230 223 224 229 231 230 229 226 222 218 212 203 196 200 211 213 205 195 189 188 194 218 243 250 257 263 234 213 225 266 287 280 234 234 248 252 245 238 237 238 238 239 240 240 239 239 239 238 238 238 238 239 241 242 245 247 248 247 248 250 251 252 252 251 251 253 256 258 257 255 253 252 252 254 256 260 264 268 271 272 272 271 269 269 269
233 234 228 221 222 226 225 223 224 226 226 226 228 222 214 213 217 216 207 200 194 187 185 199 220 226 226 239 242 215 199 204 220 226 228 255 267 257 239 235 238 239 239 240 240 242 244 245 244 243 244 244 244 245 247 248 247 249 250 249 247 249 251 253 252 251 250 250 253 255 256 256 256 255 255 257 259 263 266 267 266 265 266 268 269 269 266